[[{"header":{"parameterUnit":"m.s-1","parameterCategory":2,"la1":30.2991,"la2":30.254,"lo1":-89.0895,"lo2":-89.0444,"dy":0.0017,"dx":0.0017,"nx":28,"ny":28,"refTime":"2024-10-16T03:00:00:Z","depth":"0","parameterNumber":2,"parameterNumberName":"U-component_of_CURRENTS"},"data":[0,0,0,0,0,0,0,0,0,0,0,0,0,0,0,0,0,0,0,0,0,0,0,0,0,0,0,0,0,0,0,0,0,0,0,0,0,0,0,0,0,0,0,0,0,0,0,0,0,0,0,0,0,0,0,0,0,0,-0.2184,-0.2184,0,-0.2221,-0.2221,-0.2221,-0.2198,-0.2197,-0.2197,-0.2196,-0.2238,-0.224,-0.2242,0,0,0,0,0,0,0,0,0,0,0,0,0,-0.209,-0.2092,-0.2183,-0.2184,-0.2185,-0.2221,-0.2221,-0.2221,-0.2198,-0.2197,-0.2196,-0.2195,-0.2237,-0.2239,-0.2242,0,0,0,0,0,0,0,0,0,0,0,0,0,-0.2127,-0.2092,-0.2183,-0.218,-0.218,-0.2221,-0.2221,-0.2221,-0.2199,-0.2197,-0.2196,-0.2195,-0.2237,-0.2239,-0.2242,-0.2284,0,0,-0.2251,-0.2252,0,0,0,0,0,0,0,0,-0.2125,-0.213,-0.218,-0.218,-0.2181,-0.2206,-0.2204,-0.2244,-0.2199,-0.2188,-0.2196,-0.2194,-0.2231,-0.2234,-0.2239,-0.2286,-0.2288,-0.2251,-0.2253,-0.2254,-0.2255,0,0,0,0,0,0,0,-0.2122,-0.2128,-0.2195,-0.2181,-0.2181,-0.2176,-0.218,-0.2211,-0.2214,-0.2189,-0.2188,-0.2198,-0.223,-0.2237,-0.224,-0.2288,-0.2251,-0.2253,-0.2255,-0.2256,-0.2394,-0.2396,0,0,0,0,0,0,-0.2126,-0.2126,-0.2194,-0.2197,-0.2153,-0.2179,-0.2183,-0.2197,-0.2213,-0.2215,-0.2199,-0.2197,-0.2232,-0.2237,-0.2242,-0.2278,-0.2254,-0.2257,-0.2258,-0.2392,-0.2395,-0.2397,0,0,0,0,0,0,-0.2124,-0.2132,-0.2193,-0.2164,-0.2172,-0.2182,-0.2198,-0.2198,-0.2209,-0.2221,-0.2222,-0.2209,-0.2232,-0.2238,-0.2278,-0.228,-0.2258,-0.226,-0.239,-0.2393,-0.2396,-0.2361,0,0,0,0,0,0,-0.2121,-0.2131,-0.2143,-0.2165,-0.2174,-0.2231,-0.22,-0.22,-0.2218,-0.2215,-0.2231,-0.2233,-0.2231,-0.2274,-0.2281,-0.2284,-0.2263,-0.2388,-0.2391,-0.2395,-0.236,-0.2362,-0.2365,0,0,0,0,0,-0.2117,-0.2171,-0.2144,-0.2152,-0.2191,-0.2232,-0.2237,-0.2237,-0.2219,-0.2238,-0.2244,-0.2233,-0.2303,-0.2278,-0.2286,-0.2289,-0.2386,-0.239,-0.2395,-0.2359,-0.2362,-0.2365,0,0,0,0,0,0,-0.2143,-0.2174,-0.2145,-0.2203,-0.221,-0.223,-0.2259,-0.2247,-0.2266,-0.2268,-0.2259,-0.2263,-0.2297,-0.2316,-0.2289,-0.2347,-0.2343,-0.2349,-0.2313,-0.2317,-0.2319,-0.231,-0.2265,0,0,0,0,0,-0.2149,-0.2196,-0.2199,-0.2243,-0.2249,-0.2246,-0.2262,-0.2263,-0.2282,-0.2287,-0.2292,-0.231,-0.2324,-0.2337,-0.2363,-0.24,-0.239,-0.2412,-0.2414,-0.2416,-0.2418,-0.2403,-0.2402,-0.2412,-0.2412,-0.2411,0,0,-0.2166,-0.2195,-0.2215,-0.2251,-0.2256,-0.228,-0.2254,-0.2296,-0.2304,-0.2293,-0.2319,-0.2323,-0.234,-0.2368,-0.2386,-0.238,-0.241,-0.2422,-0.2422,-0.2424,-0.2407,-0.2405,-0.2404,-0.2415,-0.2414,-0.2414,0,0,-0.2245,-0.2248,-0.2305,-0.2316,-0.2341,-0.2332,-0.2343,-0.2358,-0.235,-0.2381,-0.2362,-0.2366,-0.2413,-0.2399,-0.2402,-0.2445,-0.2425,-0.2465,-0.2462,-0.2447,-0.2444,-0.2442,-0.2418,-0.2413,-0.2463,-0.2463,-0.2463,0,-0.226,-0.2313,-0.2327,-0.2377,-0.2378,-0.2353,-0.2382,-0.2383,-0.2407,-0.2392,-0.2397,-0.2408,-0.242,-0.2409,-0.2423,-0.2443,-0.2435,-0.2436,-0.2444,-0.2442,-0.244,-0.2415,-0.2411,-0.2462,-0.2462,-0.2462,-0.2462,0,-0.2356,-0.2392,-0.2431,-0.2462,-0.2475,-0.2503,-0.2487,-0.2485,-0.2464,-0.2452,-0.2443,-0.2444,-0.2436,-0.2446,-0.245,-0.244,-0.2438,-0.2442,-0.2419,-0.2435,-0.241,-0.2406,-0.246,-0.2461,-0.2461,-0.2461,0,0,-0.2385,-0.2475,-0.2477,-0.248,-0.2508,-0.2517,-0.2529,-0.2505,-0.2472,-0.249,-0.2445,-0.2469,-0.2441,-0.2445,-0.2429,-0.2423,-0.24,-0.2434,-0.2434,-0.238,-0.236,-0.2383,-0.2381,-0.2401,-0.24,-0.24,-0.2341,0,-0.2427,-0.2515,-0.2549,-0.2581,-0.2599,-0.2573,-0.2565,-0.2548,-0.2517,-0.2475,-0.2449,-0.2425,-0.2446,-0.242,-0.2418,-0.2405,-0.2392,-0.2415,-0.2379,-0.2378,-0.2371,-0.2378,-0.2336,-0.2283,-0.2337,-0.2336,-0.2336,0,-0.248,-0.2523,-0.2575,-0.2587,-0.2586,-0.2601,-0.253,-0.2526,-0.2473,-0.2448,-0.2418,-0.2394,-0.2372,-0.2386,-0.2366,-0.2381,-0.2376,-0.237,-0.2367,-0.2399,-0.2395,-0.2283,-0.2274,-0.2248,-0.233,-0.233,-0.2331,0,-0.2449,-0.2524,-0.2548,-0.2558,-0.2581,-0.2574,-0.2558,-0.2516,-0.2488,-0.2421,-0.2398,-0.2358,-0.2346,-0.2328,-0.2332,-0.2345,-0.2309,-0.2315,-0.2324,-0.2324,-0.2289,-0.2288,-0.2227,-0.2299,-0.2299,-0.2299,-0.2299,0,-0.2462,-0.2475,-0.2533,-0.2541,-0.2521,-0.255,-0.2509,-0.2477,-0.2442,-0.2424,-0.2379,-0.237,-0.2341,-0.232,-0.2308,-0.2308,-0.2287,-0.2323,-0.2314,-0.2279,-0.2278,-0.2257,-0.2256,-0.2297,-0.2297,-0.2298,-0.2298,0,-0.2424,-0.2477,-0.2491,-0.2514,-0.252,-0.2494,-0.2496,-0.2471,-0.2439,-0.2412,-0.2397,-0.2384,-0.2381,-0.233,-0.2305,-0.2297,-0.2235,-0.227,-0.223,-0.2219,-0.2228,-0.2227,-0.2141,-0.2087,-0.2267,-0.2267,-0.2268,0,-0.241,-0.2422,-0.2446,-0.2458,-0.2475,-0.2462,-0.2464,-0.2455,-0.2449,-0.2447,-0.2443,-0.2434,-0.2455,-0.2399,-0.2363,-0.2304,-0.2245,-0.2214,-0.2243,-0.2223,-0.2215,-0.218,-0.2138,-0.2167,-0.2166,-0.2166,-0.2166,0,-0.2342,-0.2352,-0.2359,-0.2396,-0.2418,-0.2432,-0.2448,-0.2439,-0.245,-0.2455,-0.2506,-0.2531,-0.2521,-0.2469,-0.2376,-0.2334,-0.2163,-0.2207,-0.2182,-0.2137,-0.2095,-0.2041,-0.2207,-0.2161,-0.2162,-0.2162,-0.2162,-0.2162,-0.2255,-0.2247,-0.228,-0.2294,-0.2357,-0.2407,-0.2353,-0.2419,-0.2427,-0.24,-0.2519,-0.2514,-0.2477,-0.2387,-0.2338,-0.2211,-0.2214,-0.2132,-0.2131,-0.2095,-0.2056,-0.2226,-0.2186,-0.2186,-0.2187,-0.2187,-0.2188,0,-0.213,-0.2152,-0.2183,-0.2222,-0.2277,-0.233,-0.2339,-0.2277,-0.2275,-0.2331,-0.2368,-0.2398,-0.234,-0.2276,-0.2201,-0.2128,-0.2051,-0.2044,-0.1964,-0.1924,-0.2063,-0.2075,-0.2014,-0.2014,-0.2014,-0.2014,-0.2014,-0.2014,-0.2068,-0.2053,-0.2081,-0.2121,-0.2171,-0.2139,-0.2109,-0.2074,-0.2049,-0.2042,-0.2069,-0.2157,-0.2178,-0.2245,-0.2138,-0.2045,-0.1931,-0.189,-0.1867,-0.1967,-0.1974,-0.1981,-0.199,-0.1912,-0.1912,-0.167,-0.1668,-0.1667]},{"header":{"parameterUnit":"m.s-1","parameterCategory":2,"la1":30.2991,"la2":30.254,"lo1":-89.0895,"lo2":-89.0444,"dy":0.0017,"dx":0.0017,"nx":28,"ny":28,"refTime":"2024-10-16T03:00:00:Z","depth":"0","parameterNumber":3,"parameterNumberName":"V-component_of_CURRENTS"},"data":[0,0,0,0,0,0,0,0,0,0,0,0,0,0,0,0,0,0,0,0,0,0,0,0,0,0,0,0,0,0,0,0,0,0,0,0,0,0,0,0,0,0,0,0,0,0,0,0,0,0,0,0,0,0,0,0,0,0,-0.0884,-0.0884,0,-0.0858,-0.0857,-0.0857,-0.0806,-0.0805,-0.0805,-0.0804,-0.085,-0.0852,-0.0854,0,0,0,0,0,0,0,0,0,0,0,0,0,-0.0826,-0.0828,-0.0884,-0.0884,-0.0884,-0.0858,-0.0857,-0.0857,-0.0806,-0.0805,-0.0805,-0.0804,-0.085,-0.0852,-0.0854,0,0,0,0,0,0,0,0,0,0,0,0,0,-0.0827,-0.0828,-0.0884,-0.0859,-0.0857,-0.0858,-0.0857,-0.0856,-0.0806,-0.0805,-0.0804,-0.0803,-0.0849,-0.0852,-0.0854,-0.0889,0,0,-0.0862,-0.0864,0,0,0,0,0,0,0,0,-0.0827,-0.0829,-0.0863,-0.0861,-0.0858,-0.0838,-0.0854,-0.0872,-0.0806,-0.0821,-0.0804,-0.0803,-0.0856,-0.0858,-0.0848,-0.0891,-0.0893,-0.0863,-0.0864,-0.0865,-0.0866,0,0,0,0,0,0,0,-0.0827,-0.0829,-0.087,-0.0863,-0.086,-0.0827,-0.0827,-0.0856,-0.0842,-0.082,-0.0817,-0.0821,-0.0855,-0.0846,-0.0849,-0.0894,-0.0863,-0.0865,-0.0867,-0.0868,-0.0968,-0.0969,0,0,0,0,0,0,-0.0844,-0.083,-0.0871,-0.0869,-0.0845,-0.083,-0.0829,-0.0842,-0.084,-0.084,-0.0822,-0.0819,-0.0842,-0.0846,-0.0851,-0.087,-0.0865,-0.0868,-0.087,-0.0967,-0.0969,-0.097,0,0,0,0,0,0,-0.0843,-0.0848,-0.0872,-0.0851,-0.0853,-0.0833,-0.0848,-0.0842,-0.0837,-0.0842,-0.0842,-0.0823,-0.0841,-0.0847,-0.087,-0.0872,-0.0869,-0.0872,-0.0966,-0.0968,-0.0969,-0.0922,0,0,0,0,0,0,-0.0841,-0.0848,-0.0866,-0.0853,-0.0855,-0.0886,-0.0849,-0.0842,-0.0842,-0.0838,-0.0843,-0.0846,-0.0841,-0.0866,-0.0873,-0.0876,-0.0874,-0.0965,-0.0967,-0.0969,-0.0923,-0.0922,-0.0922,0,0,0,0,0,-0.084,-0.0885,-0.0867,-0.0872,-0.088,-0.0887,-0.0885,-0.0863,-0.0844,-0.0852,-0.0841,-0.0846,-0.0884,-0.0869,-0.0876,-0.088,-0.0964,-0.0966,-0.0969,-0.0923,-0.0922,-0.0922,0,0,0,0,0,0,-0.0866,-0.0884,-0.0864,-0.091,-0.0899,-0.0881,-0.0895,-0.0873,-0.0868,-0.0869,-0.0856,-0.0859,-0.0875,-0.0899,-0.0883,-0.092,-0.0927,-0.0931,-0.089,-0.089,-0.0889,-0.0883,-0.0876,0,0,0,0,0,-0.0881,-0.0921,-0.091,-0.0943,-0.0943,-0.0915,-0.0916,-0.0902,-0.0896,-0.0892,-0.0886,-0.0892,-0.0893,-0.0907,-0.0917,-0.0948,-0.0934,-0.0961,-0.096,-0.0959,-0.0963,-0.0947,-0.0944,-0.0978,-0.0978,-0.0978,0,0,-0.0895,-0.0915,-0.0932,-0.0951,-0.094,-0.0945,-0.0913,-0.0928,-0.0919,-0.0904,-0.0899,-0.0891,-0.09,-0.091,-0.0923,-0.0931,-0.0936,-0.0962,-0.0961,-0.0965,-0.0949,-0.0945,-0.0942,-0.0979,-0.0979,-0.0979,0,0,-0.0948,-0.0962,-0.1004,-0.1002,-0.1007,-0.0987,-0.0994,-0.0976,-0.0956,-0.0957,-0.0927,-0.0917,-0.0943,-0.0923,-0.0922,-0.0939,-0.0927,-0.0959,-0.0957,-0.0941,-0.0937,-0.0933,-0.087,-0.0861,-0.0966,-0.0966,-0.0966,0,-0.0952,-0.1002,-0.1013,-0.1042,-0.1033,-0.1007,-0.1015,-0.1001,-0.0987,-0.0963,-0.0962,-0.0932,-0.0942,-0.0915,-0.0918,-0.0934,-0.0914,-0.0947,-0.0936,-0.0932,-0.093,-0.0866,-0.0857,-0.0964,-0.0964,-0.0964,-0.0965,0,-0.1014,-0.105,-0.1075,-0.1091,-0.1091,-0.11,-0.1074,-0.1059,-0.1029,-0.1001,-0.0966,-0.095,-0.0924,-0.0931,-0.0932,-0.0914,-0.0898,-0.0924,-0.0925,-0.0923,-0.0856,-0.0847,-0.0961,-0.0962,-0.0963,-0.0963,0,0,-0.1022,-0.1095,-0.11,-0.1102,-0.1109,-0.1106,-0.1097,-0.1059,-0.1021,-0.1008,-0.0948,-0.0944,-0.0913,-0.0912,-0.0895,-0.0893,-0.0841,-0.0909,-0.0909,-0.0823,-0.077,-0.0684,-0.0665,-0.0866,-0.0866,-0.0865,-0.0715,0,-0.1043,-0.1101,-0.1128,-0.1146,-0.1159,-0.1127,-0.1102,-0.1072,-0.1033,-0.0977,-0.0941,-0.0899,-0.0912,-0.0882,-0.0878,-0.0861,-0.0825,-0.0878,-0.0806,-0.0803,-0.0709,-0.0656,-0.0615,-0.0473,-0.0706,-0.0705,-0.0704,0,-0.1087,-0.1114,-0.1145,-0.1147,-0.1141,-0.1139,-0.1066,-0.1044,-0.0977,-0.0942,-0.0896,-0.0863,-0.0828,-0.0845,-0.0793,-0.0829,-0.0794,-0.0779,-0.0774,-0.0709,-0.0702,-0.0525,-0.0449,-0.0356,-0.069,-0.0692,-0.0693,0,-0.1084,-0.1125,-0.114,-0.1143,-0.114,-0.112,-0.109,-0.1032,-0.0995,-0.0917,-0.0878,-0.0826,-0.0791,-0.0765,-0.0724,-0.0765,-0.0655,-0.0703,-0.0571,-0.0563,-0.0522,-0.0512,-0.0333,-0.0645,-0.0645,-0.0646,-0.0646,0,-0.1106,-0.1119,-0.1138,-0.1146,-0.1114,-0.1113,-0.106,-0.1017,-0.0956,-0.0916,-0.0857,-0.0805,-0.0782,-0.0713,-0.0687,-0.0579,-0.0614,-0.0543,-0.0519,-0.0501,-0.0491,-0.0407,-0.0383,-0.064,-0.0641,-0.0642,-0.0643,0,-0.1122,-0.1144,-0.1158,-0.1143,-0.1131,-0.1105,-0.1057,-0.103,-0.0959,-0.0902,-0.0879,-0.0795,-0.0707,-0.0629,-0.0564,-0.0515,-0.0356,-0.0377,-0.0325,-0.0297,-0.0116,-0.0092,0.0123,0.0142,-0.0217,-0.0214,-0.0211,0,-0.1138,-0.1153,-0.1146,-0.1151,-0.115,-0.1112,-0.1096,-0.1036,-0.1014,-0.0901,-0.0881,-0.0759,-0.0671,-0.0478,-0.0366,-0.0223,-0.0203,-0.0097,-0.0176,-0.0063,-0.002,-0.0002,-0.0004,-0.0086,-0.0082,-0.008,-0.0078,0,-0.1144,-0.1144,-0.1149,-0.1165,-0.1166,-0.1152,-0.1125,-0.1101,-0.1035,-0.0975,-0.0892,-0.0804,-0.0564,-0.0379,-0.0146,-0.0079,-0.0015,-0.0035,0.0051,0.0089,0.0149,0.0164,-0.0196,-0.0053,-0.0055,-0.0057,-0.0059,-0.006,-0.1133,-0.114,-0.1165,-0.1172,-0.1197,-0.1218,-0.1201,-0.1172,-0.1128,-0.1035,-0.0929,-0.0771,-0.0425,-0.0095,0.0006,0.0267,0.0195,0.0301,0.0324,0.0336,0.0347,0.0077,0.0256,0.0255,0.0255,0.0254,0.0254,0,-0.1126,-0.115,-0.1173,-0.1216,-0.1278,-0.1267,-0.1251,-0.1241,-0.1206,-0.1071,-0.0963,-0.0571,-0.022,0.008,0.0485,0.0613,0.0578,0.0661,0.0668,0.0643,0.0389,0.0384,0.0637,0.0637,0.0637,0.0636,0.0636,0.0636,-0.1129,-0.1159,-0.1184,-0.129,-0.1336,-0.1388,-0.1385,-0.1353,-0.126,-0.1051,-0.0825,-0.0654,-0.0131,0.059,0.0938,0.0942,0.0969,0.1009,0.1,0.0803,0.0769,0.0737,0.0739,0.1062,0.1062,0.1223,0.1225,0.1227]}],[{"header":{"parameterUnit":"m.s-1","parameterCategory":2,"la1":30.2991,"la2":30.254,"lo1":-89.0895,"lo2":-89.0444,"dy":0.0017,"dx":0.0017,"nx":28,"ny":28,"refTime":"2024-10-16T03:00:00:Z","depth":"2","parameterNumber":2,"parameterNumberName":"U-component_of_CURRENTS"},"data":[0,0,0,0,0,0,0,0,0,0,0,0,0,0,0,0,0,0,0,0,0,0,0,0,0,0,0,0,0,0,0,0,0,0,0,0,0,0,0,0,0,0,0,0,0,0,0,0,0,0,0,0,0,0,0,0,0,0,-0.1747,-0.1748,0,-0.1788,-0.1788,-0.1788,-0.1813,-0.1814,-0.1814,-0.1815,-0.1881,-0.1882,-0.1883,0,0,0,0,0,0,0,0,0,0,0,0,0,-0.1729,-0.1729,-0.1747,-0.1748,-0.1749,-0.1788,-0.1788,-0.1788,-0.1813,-0.1814,-0.1814,-0.1815,-0.188,-0.1882,-0.1884,0,0,0,0,0,0,0,0,0,0,0,0,0,-0.1747,-0.1728,-0.1747,-0.1768,-0.1771,-0.1788,-0.1788,-0.1788,-0.1813,-0.1814,-0.1814,-0.1815,-0.188,-0.1882,-0.1884,-0.1885,0,0,-0.189,-0.1891,0,0,0,0,0,0,0,0,-0.1746,-0.1747,-0.1764,-0.1767,-0.177,-0.1799,-0.1806,-0.1823,-0.1813,-0.1794,-0.1815,-0.1815,-0.1857,-0.1861,-0.1863,-0.1888,-0.1891,-0.189,-0.1892,-0.1893,-0.1893,0,0,0,0,0,0,0,-0.1744,-0.1746,-0.176,-0.1765,-0.1768,-0.1789,-0.1791,-0.1809,-0.182,-0.1796,-0.1798,-0.1807,-0.1858,-0.1861,-0.1865,-0.1892,-0.189,-0.1892,-0.1893,-0.1894,-0.1974,-0.1975,0,0,0,0,0,0,-0.1743,-0.1744,-0.1759,-0.1762,-0.1762,-0.1788,-0.1791,-0.1786,-0.1819,-0.1825,-0.1807,-0.1808,-0.1857,-0.1862,-0.1867,-0.1924,-0.1893,-0.1894,-0.1896,-0.1973,-0.1974,-0.1975,0,0,0,0,0,0,-0.1742,-0.1743,-0.1758,-0.1757,-0.1761,-0.1788,-0.1783,-0.1787,-0.1807,-0.1828,-0.1834,-0.1824,-0.1858,-0.1864,-0.194,-0.1925,-0.1895,-0.1897,-0.1972,-0.1973,-0.1975,-0.2004,0,0,0,0,0,0,-0.1741,-0.1742,-0.1741,-0.1757,-0.1761,-0.1778,-0.1782,-0.1787,-0.1812,-0.1814,-0.1845,-0.1851,-0.1859,-0.1938,-0.1942,-0.1928,-0.1899,-0.1971,-0.1973,-0.1974,-0.2002,-0.2006,-0.201,0,0,0,0,0,-0.174,-0.1746,-0.174,-0.1742,-0.1757,-0.1779,-0.1783,-0.1803,-0.1812,-0.1822,-0.1877,-0.185,-0.1949,-0.1942,-0.1947,-0.1932,-0.197,-0.1972,-0.1974,-0.2,-0.2005,-0.201,0,0,0,0,0,0,-0.1744,-0.175,-0.1743,-0.1751,-0.1765,-0.1785,-0.1808,-0.1811,-0.1857,-0.1899,-0.1891,-0.1902,-0.1949,-0.195,-0.1941,-0.1959,-0.1942,-0.1945,-0.196,-0.1965,-0.1968,-0.1943,-0.1901,0,0,0,0,0,-0.174,-0.1745,-0.1751,-0.1761,-0.1773,-0.1789,-0.1803,-0.1837,-0.1877,-0.1898,-0.1898,-0.1928,-0.1955,-0.1974,-0.1995,-0.2025,-0.1994,-0.2009,-0.2013,-0.2016,-0.2,-0.1962,-0.196,-0.1982,-0.1982,-0.1981,0,0,-0.1756,-0.1751,-0.1762,-0.1763,-0.1782,-0.1804,-0.18,-0.1862,-0.1888,-0.1901,-0.1936,-0.1951,-0.197,-0.2005,-0.2021,-0.2008,-0.1999,-0.2019,-0.2021,-0.2003,-0.1964,-0.1961,-0.1959,-0.1983,-0.1983,-0.1982,0,0,-0.1795,-0.1779,-0.1804,-0.1819,-0.1863,-0.1856,-0.1873,-0.1902,-0.1924,-0.1986,-0.1985,-0.2003,-0.204,-0.203,-0.2039,-0.2077,-0.2024,-0.2069,-0.2066,-0.203,-0.2027,-0.2024,-0.1998,-0.1992,-0.2066,-0.2066,-0.2066,0,-0.1819,-0.182,-0.1818,-0.1851,-0.1859,-0.1873,-0.1907,-0.1934,-0.1981,-0.1976,-0.2016,-0.2026,-0.2047,-0.2046,-0.2064,-0.208,-0.2056,-0.2048,-0.2033,-0.2029,-0.2025,-0.1999,-0.1992,-0.2068,-0.2068,-0.2068,-0.2068,0,-0.1873,-0.1882,-0.1905,-0.1918,-0.1929,-0.1972,-0.1997,-0.2021,-0.204,-0.2025,-0.2046,-0.2087,-0.2073,-0.2075,-0.2097,-0.2058,-0.205,-0.2045,-0.2015,-0.2024,-0.1997,-0.1989,-0.207,-0.207,-0.2069,-0.2069,0,0,-0.189,-0.1931,-0.1938,-0.1912,-0.1972,-0.1953,-0.2033,-0.2021,-0.2018,-0.2063,-0.2042,-0.2083,-0.206,-0.2067,-0.2068,-0.2042,-0.2014,-0.2035,-0.2033,-0.1999,-0.1937,-0.2046,-0.2047,-0.2004,-0.2002,-0.2001,-0.1933,0,-0.192,-0.1944,-0.1978,-0.1968,-0.1952,-0.1999,-0.2035,-0.205,-0.2059,-0.2041,-0.2066,-0.2053,-0.207,-0.2076,-0.2056,-0.2023,-0.1993,-0.2033,-0.1941,-0.1938,-0.2025,-0.2042,-0.1832,-0.1764,-0.1926,-0.1924,-0.1923,0,-0.1959,-0.1926,-0.1968,-0.1914,-0.1921,-0.1949,-0.1935,-0.1971,-0.1993,-0.2028,-0.2028,-0.2018,-0.2001,-0.2031,-0.1968,-0.1993,-0.1964,-0.1941,-0.1938,-0.2017,-0.2032,-0.1779,-0.1744,-0.191,-0.1911,-0.1912,-0.1913,0,-0.1886,-0.1894,-0.1894,-0.19,-0.19,-0.1934,-0.192,-0.1958,-0.1977,-0.1993,-0.2023,-0.198,-0.2014,-0.1949,-0.1961,-0.1937,-0.1909,-0.1863,-0.1925,-0.1932,-0.1724,-0.1717,-0.1801,-0.1801,-0.1801,-0.1801,-0.1802,0,-0.1868,-0.1843,-0.1862,-0.1843,-0.1833,-0.1853,-0.1857,-0.1898,-0.1946,-0.1971,-0.1987,-0.205,-0.1999,-0.1999,-0.1948,-0.1958,-0.1902,-0.1923,-0.1923,-0.1737,-0.1732,-0.1832,-0.1836,-0.1799,-0.1799,-0.18,-0.18,0,-0.1844,-0.1874,-0.1834,-0.1813,-0.1827,-0.1816,-0.1843,-0.1812,-0.1913,-0.1978,-0.1996,-0.2077,-0.2107,-0.207,-0.2006,-0.1986,-0.1943,-0.196,-0.1774,-0.1757,-0.1968,-0.1975,-0.1945,-0.1948,-0.1951,-0.1953,-0.1955,0,-0.1844,-0.1834,-0.1823,-0.1786,-0.1801,-0.1783,-0.1787,-0.184,-0.1833,-0.2024,-0.2049,-0.2135,-0.2228,-0.2211,-0.2131,-0.205,-0.2057,-0.1838,-0.1762,-0.1981,-0.1982,-0.1985,-0.1988,-0.1471,-0.1469,-0.1467,-0.1466,0,-0.1779,-0.1826,-0.1755,-0.173,-0.1715,-0.17,-0.1699,-0.1753,-0.1863,-0.1964,-0.2166,-0.2267,-0.2306,-0.2177,-0.2116,-0.2023,-0.1827,-0.1809,-0.203,-0.1533,-0.1547,-0.1547,-0.1561,-0.145,-0.1452,-0.1453,-0.1454,-0.1455,-0.1711,-0.1666,-0.1618,-0.1587,-0.1571,-0.163,-0.163,-0.168,-0.1797,-0.1917,-0.209,-0.2142,-0.2072,-0.1895,-0.1837,-0.1768,-0.1867,-0.1678,-0.1675,-0.1676,-0.17,-0.1725,-0.1663,-0.1666,-0.1668,-0.167,-0.1672,0,-0.1558,-0.1507,-0.1446,-0.1384,-0.1329,-0.1462,-0.154,-0.1499,-0.1645,-0.1774,-0.1862,-0.1636,-0.1588,-0.1577,-0.1484,-0.1491,-0.1375,-0.1391,-0.1191,-0.1209,-0.1224,-0.1217,-0.1055,-0.1054,-0.1053,-0.1051,0,0,-0.1428,-0.1284,-0.1262,-0.1141,-0.1175,-0.119,-0.1283,-0.1308,-0.1343,-0.1372,-0.1385,-0.1356,-0.1497,-0.1203,-0.1165,-0.1139,-0.1149,-0.1073,-0.1558,-0.1336,-0.135,-0.1376,-0.1388,0,0,0,0,0]},{"header":{"parameterUnit":"m.s-1","parameterCategory":2,"la1":30.2991,"la2":30.254,"lo1":-89.0895,"lo2":-89.0444,"dy":0.0017,"dx":0.0017,"nx":28,"ny":28,"refTime":"2024-10-16T03:00:00:Z","depth":"2","parameterNumber":3,"parameterNumberName":"V-component_of_CURRENTS"},"data":[0,0,0,0,0,0,0,0,0,0,0,0,0,0,0,0,0,0,0,0,0,0,0,0,0,0,0,0,0,0,0,0,0,0,0,0,0,0,0,0,0,0,0,0,0,0,0,0,0,0,0,0,0,0,0,0,0,0,-0.0379,-0.0379,0,-0.0338,-0.0337,-0.0336,-0.0322,-0.0323,-0.0324,-0.0324,-0.0286,-0.0284,-0.0282,0,0,0,0,0,0,0,0,0,0,0,0,0,-0.0409,-0.0408,-0.0379,-0.0379,-0.0379,-0.0338,-0.0337,-0.0335,-0.0322,-0.0323,-0.0324,-0.0325,-0.0286,-0.0284,-0.0282,0,0,0,0,0,0,0,0,0,0,0,0,0,-0.0379,-0.0408,-0.0379,-0.0372,-0.0372,-0.0338,-0.0337,-0.0335,-0.0322,-0.0323,-0.0324,-0.0325,-0.0287,-0.0284,-0.0282,-0.0242,0,0,-0.0274,-0.0272,0,0,0,0,0,0,0,0,-0.038,-0.0377,-0.0373,-0.0373,-0.0372,-0.0342,-0.0333,-0.0306,-0.0321,-0.0334,-0.0324,-0.0326,-0.0308,-0.0304,-0.0284,-0.024,-0.0238,-0.0273,-0.0272,-0.0271,-0.027,0,0,0,0,0,0,0,-0.0383,-0.0378,-0.0356,-0.0373,-0.0373,-0.0359,-0.0356,-0.0327,-0.031,-0.0333,-0.0333,-0.0339,-0.0307,-0.0286,-0.0283,-0.0238,-0.0273,-0.0271,-0.0269,-0.0268,-0.0166,-0.0165,0,0,0,0,0,0,-0.0401,-0.038,-0.0357,-0.0355,-0.0387,-0.0358,-0.0354,-0.0345,-0.031,-0.0308,-0.0338,-0.0339,-0.029,-0.0286,-0.0282,-0.0287,-0.0271,-0.0268,-0.0267,-0.0167,-0.0166,-0.0164,0,0,0,0,0,0,-0.0402,-0.0399,-0.0359,-0.0373,-0.0368,-0.0358,-0.0347,-0.0344,-0.0342,-0.0315,-0.0312,-0.0343,-0.0291,-0.0285,-0.028,-0.0284,-0.0267,-0.0265,-0.0168,-0.0167,-0.0165,-0.0263,0,0,0,0,0,0,-0.0402,-0.0399,-0.0395,-0.0374,-0.0368,-0.0349,-0.0346,-0.0342,-0.0346,-0.0346,-0.0318,-0.0314,-0.0292,-0.0284,-0.0277,-0.028,-0.0262,-0.017,-0.0168,-0.0165,-0.0261,-0.0265,-0.0268,0,0,0,0,0,-0.0403,-0.0394,-0.0395,-0.0393,-0.0364,-0.0349,-0.0344,-0.0337,-0.0345,-0.0339,-0.0333,-0.0316,-0.0264,-0.0282,-0.0274,-0.0276,-0.0171,-0.0168,-0.0166,-0.026,-0.0264,-0.0268,0,0,0,0,0,0,-0.0408,-0.0392,-0.0392,-0.038,-0.0373,-0.035,-0.0351,-0.0346,-0.0332,-0.0365,-0.0317,-0.0312,-0.0299,-0.0267,-0.0287,-0.0232,-0.0207,-0.0203,-0.0281,-0.0285,-0.0288,-0.0269,-0.026,0,0,0,0,0,-0.0408,-0.0398,-0.0386,-0.0381,-0.0382,-0.0369,-0.0364,-0.0383,-0.0372,-0.0369,-0.0326,-0.0299,-0.0275,-0.027,-0.0232,-0.0218,-0.0168,-0.0203,-0.0207,-0.0211,-0.0184,-0.0133,-0.013,-0.0156,-0.0156,-0.0156,0,0,-0.0426,-0.0404,-0.041,-0.0382,-0.038,-0.0362,-0.0368,-0.0399,-0.0392,-0.0368,-0.0331,-0.0312,-0.027,-0.0252,-0.0242,-0.0236,-0.0178,-0.0207,-0.0212,-0.0182,-0.013,-0.0128,-0.0126,-0.0154,-0.0155,-0.0155,0,0,-0.0425,-0.0425,-0.0408,-0.041,-0.0423,-0.0399,-0.0411,-0.0398,-0.0405,-0.0396,-0.0367,-0.0354,-0.0297,-0.0267,-0.0249,-0.0243,-0.0194,-0.0225,-0.024,-0.0193,-0.0191,-0.0189,-0.014,-0.0132,-0.0235,-0.0235,-0.0235,0,-0.0438,-0.0417,-0.0406,-0.0392,-0.0398,-0.0409,-0.0409,-0.0405,-0.0388,-0.0369,-0.0403,-0.0311,-0.03,-0.026,-0.0266,-0.0254,-0.0212,-0.0245,-0.0201,-0.0198,-0.0193,-0.0144,-0.0134,-0.0239,-0.0239,-0.0238,-0.0238,0,-0.0447,-0.0422,-0.0423,-0.0388,-0.0378,-0.041,-0.0405,-0.0413,-0.0423,-0.0372,-0.0353,-0.0356,-0.0296,-0.0297,-0.0293,-0.0245,-0.0221,-0.0215,-0.0204,-0.0198,-0.0145,-0.0133,-0.0246,-0.0244,-0.0243,-0.0242,0,0,-0.048,-0.0435,-0.0435,-0.0392,-0.041,-0.0377,-0.041,-0.0371,-0.0354,-0.0355,-0.0321,-0.0303,-0.0288,-0.0266,-0.0269,-0.0243,-0.0213,-0.0226,-0.0221,-0.0199,-0.01,-0.0113,-0.0101,-0.0207,-0.0205,-0.0204,-0.0083,0,-0.0487,-0.0438,-0.0429,-0.0367,-0.0333,-0.0374,-0.0367,-0.0348,-0.0341,-0.03,-0.0321,-0.0271,-0.0281,-0.0301,-0.0275,-0.022,-0.0182,-0.0245,-0.0087,-0.0081,-0.0112,-0.0087,-0.0089,0.0017,-0.0071,-0.0069,-0.0068,0,-0.0506,-0.0443,-0.0436,-0.032,-0.0316,-0.0311,-0.0302,-0.0295,-0.0272,-0.0296,-0.0279,-0.0241,-0.0215,-0.0256,-0.0151,-0.0191,-0.014,-0.0105,-0.0099,-0.0059,-0.0071,0.0005,0.0042,-0.0047,-0.0049,-0.005,-0.0052,0,-0.0506,-0.0418,-0.0405,-0.0402,-0.0325,-0.0355,-0.0311,-0.0295,-0.0286,-0.0287,-0.0303,-0.0222,-0.0261,-0.0161,-0.0127,-0.0114,-0.0028,0.0004,0.0055,0.0054,0.0116,0.0117,0.0104,0.0103,0.0103,0.0103,0.0102,0,-0.0517,-0.0466,-0.0416,-0.0408,-0.0385,-0.033,-0.0319,-0.0331,-0.0324,-0.0293,-0.029,-0.0312,-0.0242,-0.0194,-0.0109,-0.0019,-0.0011,0.0077,0.0092,0.008,0.0077,0.0076,0.0071,0.0107,0.0106,0.0105,0.0105,0,-0.0553,-0.0533,-0.048,-0.0416,-0.0409,-0.0405,-0.0346,-0.0301,-0.0345,-0.0361,-0.037,-0.0358,-0.0299,-0.0225,-0.0099,-0.0029,0.0083,0.0108,0.0078,0.0087,0.0153,0.0142,0.0267,0.0268,0.0268,0.0269,0.0269,0,-0.0576,-0.0567,-0.0533,-0.0507,-0.0505,-0.0466,-0.0444,-0.0396,-0.0351,-0.0387,-0.0389,-0.0361,-0.0332,-0.0184,-0.0053,0.0113,0.008,0.0191,0.0233,0.0172,0.0174,0.0161,0.015,0.0279,0.028,0.028,0.028,0,-0.0591,-0.0632,-0.0582,-0.0573,-0.0551,-0.0485,-0.0428,-0.0431,-0.0398,-0.0434,-0.0462,-0.0432,-0.0297,-0.0133,0.0031,0.0134,0.0176,0.0208,0.0161,0.0216,0.0188,0.0187,0.0175,0.0284,0.0283,0.0283,0.0283,0.0283,-0.0615,-0.061,-0.0593,-0.0583,-0.0541,-0.0526,-0.0533,-0.047,-0.0489,-0.0557,-0.0489,-0.0481,-0.0298,-0.0044,0.011,0.0237,0.0259,0.0311,0.0309,0.0307,0.0265,0.0237,0.0335,0.0335,0.0335,0.0335,0.0335,0,-0.0607,-0.0585,-0.0559,-0.0538,-0.0502,-0.0529,-0.0517,-0.0523,-0.0608,-0.0609,-0.0621,-0.0436,-0.0221,-0.0046,0.0193,0.0358,0.0363,0.0366,0.0349,0.0345,0.0342,0.0301,0.0382,0.0382,0.0382,0.0383,0,0,-0.0564,-0.052,-0.0517,-0.0498,-0.0526,-0.0571,-0.0623,-0.0673,-0.0672,-0.0702,-0.0681,-0.0557,-0.0272,-0.0104,0.0111,0.0245,0.0244,0.0254,0.0203,0.0154,0.0148,0.03,0.0231,0,0,0,0,0]}],[{"header":{"parameterUnit":"m.s-1","parameterCategory":2,"la1":30.2991,"la2":30.254,"lo1":-89.0895,"lo2":-89.0444,"dy":0.0017,"dx":0.0017,"nx":28,"ny":28,"refTime":"2024-10-16T03:00:00:Z","depth":"4","parameterNumber":2,"parameterNumberName":"U-component_of_CURRENTS"},"data":[0,0,0,0,0,0,0,0,0,0,0,0,0,0,0,0,0,0,0,0,0,0,0,0,0,0,0,0,0,0,0,0,0,0,0,0,0,0,0,0,0,0,0,0,0,0,0,0,0,0,0,0,0,0,0,0,0,0,-0.0891,-0.0891,0,-0.0872,-0.0872,-0.0871,-0.088,-0.0881,-0.0881,-0.0882,-0.0837,-0.0836,-0.0834,0,0,0,0,0,0,0,0,0,0,0,0,0,-0.0901,-0.09,-0.0891,-0.0891,-0.0891,-0.0872,-0.0871,-0.0871,-0.088,-0.0881,-0.0882,-0.0882,-0.0838,-0.0836,-0.0834,0,0,0,0,0,0,0,0,0,0,0,0,0,-0.0889,-0.09,-0.0891,-0.0894,-0.0894,-0.0872,-0.0871,-0.0871,-0.088,-0.0881,-0.0882,-0.0883,-0.0839,-0.0836,-0.0833,-0.0799,0,0,-0.0825,-0.0824,0,0,0,0,0,0,0,0,-0.089,-0.0889,-0.0894,-0.0894,-0.0894,-0.088,-0.0859,-0.0846,-0.088,-0.0884,-0.0882,-0.0883,-0.0849,-0.0846,-0.0839,-0.0797,-0.0795,-0.0825,-0.0824,-0.0823,-0.0822,0,0,0,0,0,0,0,-0.0891,-0.089,-0.0882,-0.0894,-0.0894,-0.0884,-0.0884,-0.0856,-0.0861,-0.0884,-0.0885,-0.0884,-0.0849,-0.0842,-0.0838,-0.0795,-0.0825,-0.0823,-0.0821,-0.082,-0.0778,-0.0778,0,0,0,0,0,0,-0.0896,-0.089,-0.0883,-0.0882,-0.0895,-0.0883,-0.0883,-0.0883,-0.0861,-0.086,-0.0883,-0.0885,-0.0846,-0.0841,-0.0836,-0.0844,-0.0823,-0.082,-0.0819,-0.0777,-0.0778,-0.0778,0,0,0,0,0,0,-0.0897,-0.0896,-0.0884,-0.0887,-0.0885,-0.0883,-0.0882,-0.0882,-0.0893,-0.0862,-0.0859,-0.0897,-0.0846,-0.084,-0.0828,-0.0841,-0.0819,-0.0817,-0.0777,-0.0777,-0.0778,-0.0828,0,0,0,0,0,0,-0.0897,-0.0896,-0.0906,-0.0887,-0.0885,-0.0882,-0.0882,-0.0881,-0.089,-0.0892,-0.0872,-0.0868,-0.0846,-0.0832,-0.0826,-0.0837,-0.0814,-0.0776,-0.0777,-0.0778,-0.0826,-0.0831,-0.0834,0,0,0,0,0,-0.0897,-0.0898,-0.0907,-0.0906,-0.0896,-0.0883,-0.0881,-0.0881,-0.0891,-0.0895,-0.0884,-0.0869,-0.0833,-0.083,-0.0822,-0.0833,-0.0776,-0.0777,-0.0778,-0.0824,-0.083,-0.0834,0,0,0,0,0,0,-0.0909,-0.0898,-0.0908,-0.0907,-0.0905,-0.0885,-0.0887,-0.0891,-0.0886,-0.0886,-0.0868,-0.0862,-0.0856,-0.0837,-0.0834,-0.0824,-0.0804,-0.0804,-0.0842,-0.0847,-0.0851,-0.0851,-0.0812,0,0,0,0,0,-0.0917,-0.0912,-0.0908,-0.0908,-0.091,-0.0904,-0.0903,-0.09,-0.0889,-0.0889,-0.0878,-0.0863,-0.0849,-0.0844,-0.0821,-0.0813,-0.081,-0.0817,-0.0821,-0.0825,-0.082,-0.0866,-0.0874,-0.0781,-0.0781,-0.0781,0,0,-0.0921,-0.0914,-0.0914,-0.091,-0.0907,-0.0904,-0.0906,-0.09,-0.0897,-0.0881,-0.0879,-0.0872,-0.0848,-0.0841,-0.0837,-0.0831,-0.0842,-0.0826,-0.0829,-0.0822,-0.0868,-0.0877,-0.0885,-0.0782,-0.0782,-0.0782,0,0,-0.0913,-0.0924,-0.0917,-0.0915,-0.0911,-0.0907,-0.0913,-0.0904,-0.0905,-0.0898,-0.0891,-0.0895,-0.087,-0.0862,-0.0854,-0.0866,-0.086,-0.0866,-0.089,-0.0936,-0.0944,-0.0952,-0.0933,-0.0938,-0.0873,-0.0873,-0.0873,0,-0.0923,-0.0912,-0.0914,-0.0907,-0.0907,-0.0914,-0.0909,-0.0907,-0.0896,-0.0894,-0.0902,-0.0896,-0.0877,-0.0881,-0.0887,-0.0875,-0.0887,-0.0875,-0.0944,-0.0951,-0.0958,-0.0937,-0.0942,-0.0876,-0.0875,-0.0875,-0.0875,0,-0.0903,-0.0905,-0.09,-0.0897,-0.09,-0.0893,-0.0894,-0.0897,-0.0906,-0.0904,-0.0916,-0.0912,-0.0915,-0.0915,-0.0901,-0.094,-0.0926,-0.0943,-0.0935,-0.0971,-0.0945,-0.095,-0.0879,-0.0878,-0.0878,-0.0877,0,0,-0.0888,-0.0889,-0.0888,-0.0888,-0.0893,-0.0885,-0.089,-0.089,-0.0889,-0.0909,-0.0923,-0.0923,-0.0945,-0.0937,-0.0944,-0.0981,-0.1026,-0.099,-0.0991,-0.0976,-0.1096,-0.0998,-0.0994,-0.1079,-0.1081,-0.1082,-0.1049,0,-0.0875,-0.0859,-0.0867,-0.0861,-0.0855,-0.087,-0.087,-0.0872,-0.088,-0.0894,-0.0923,-0.094,-0.0949,-0.0971,-0.101,-0.1037,-0.1046,-0.103,-0.1057,-0.1056,-0.0973,-0.0999,-0.1088,-0.1052,-0.1053,-0.1054,-0.1055,0,-0.0833,-0.0838,-0.0829,-0.0834,-0.0835,-0.0839,-0.0843,-0.0844,-0.0864,-0.0874,-0.0918,-0.0952,-0.1013,-0.102,-0.109,-0.1093,-0.1085,-0.1097,-0.1097,-0.0992,-0.0969,-0.1015,-0.1063,-0.1062,-0.1062,-0.1061,-0.1061,0,-0.0783,-0.0796,-0.079,-0.0793,-0.0811,-0.0816,-0.0826,-0.0835,-0.0828,-0.0881,-0.0902,-0.098,-0.1029,-0.1082,-0.1111,-0.1123,-0.1167,-0.1185,-0.1069,-0.1059,-0.1135,-0.1128,-0.1199,-0.12,-0.12,-0.12,-0.12,0,-0.0731,-0.0726,-0.0771,-0.0767,-0.0763,-0.0788,-0.0779,-0.0792,-0.0815,-0.0811,-0.0903,-0.092,-0.106,-0.1103,-0.112,-0.1105,-0.1177,-0.1063,-0.1056,-0.115,-0.1145,-0.1136,-0.1129,-0.1198,-0.1199,-0.1199,-0.1199,0,-0.065,-0.0679,-0.068,-0.0724,-0.0731,-0.0727,-0.0742,-0.073,-0.0775,-0.0782,-0.0816,-0.0902,-0.0962,-0.1041,-0.1106,-0.1097,-0.1102,-0.1055,-0.1107,-0.1105,-0.0953,-0.0949,-0.0947,-0.0943,-0.0941,-0.0938,-0.0936,0,-0.0596,-0.0592,-0.0641,-0.064,-0.066,-0.0665,-0.0655,-0.0692,-0.0689,-0.0745,-0.0746,-0.0824,-0.0874,-0.0883,-0.097,-0.0992,-0.0974,-0.0976,-0.1001,-0.0939,-0.0934,-0.0934,-0.0934,-0.0931,-0.0931,-0.093,-0.0929,0,-0.0514,-0.0544,-0.0558,-0.056,-0.0562,-0.0555,-0.0562,-0.0555,-0.0602,-0.0659,-0.0662,-0.0702,-0.0737,-0.0807,-0.0826,-0.0838,-0.1005,-0.0945,-0.0952,-0.0976,-0.0921,-0.0918,-0.0921,-0.0919,-0.092,-0.0921,-0.0922,0,-0.0458,-0.0451,-0.0474,-0.0468,-0.0468,-0.0447,-0.0465,-0.047,-0.0476,-0.0564,-0.0548,-0.0619,-0.0695,-0.0716,-0.073,-0.0755,-0.0754,-0.0767,-0.0783,-0.0795,-0.0769,-0.0678,-0.0591,0,0,0,0,0,-0.0393,-0.0378,-0.037,-0.0361,-0.0362,-0.0358,-0.0397,-0.0427,-0.0492,-0.0467,-0.0507,-0.0526,-0.0563,-0.0597,-0.0594,-0.0671,-0.0764,-0.0667,-0.0787,-0.0863,-0.0875,-0.0864,0,0,0,0,0,0,-0.0349,-0.0342,-0.0343,-0.0275,-0.0246,-0.0231,-0.0256,-0.0306,-0.0309,-0.0388,-0.0406,-0.0476,-0.0516,-0.0533,-0.0566,-0.0582,-0.0649,-0.0713,-0.0711,-0.0856,-0.0867,-0.0876,-0.0869,0,0,0,0,0]},{"header":{"parameterUnit":"m.s-1","parameterCategory":2,"la1":30.2991,"la2":30.254,"lo1":-89.0895,"lo2":-89.0444,"dy":0.0017,"dx":0.0017,"nx":28,"ny":28,"refTime":"2024-10-16T03:00:00:Z","depth":"4","parameterNumber":3,"parameterNumberName":"V-component_of_CURRENTS"},"data":[0,0,0,0,0,0,0,0,0,0,0,0,0,0,0,0,0,0,0,0,0,0,0,0,0,0,0,0,0,0,0,0,0,0,0,0,0,0,0,0,0,0,0,0,0,0,0,0,0,0,0,0,0,0,0,0,0,0,0.0135,0.0136,0,0.0229,0.023,0.0231,0.028,0.028,0.028,0.028,0.0358,0.036,0.0362,0,0,0,0,0,0,0,0,0,0,0,0,0,0.0051,0.0052,0.0134,0.0136,0.0137,0.0229,0.023,0.0231,0.028,0.028,0.028,0.028,0.0357,0.036,0.0362,0,0,0,0,0,0,0,0,0,0,0,0,0,0.011,0.0052,0.0134,0.0173,0.0177,0.0229,0.023,0.0232,0.028,0.028,0.028,0.028,0.0357,0.0359,0.0362,0.0378,0,0,0.0371,0.0373,0,0,0,0,0,0,0,0,0.0107,0.0113,0.0166,0.017,0.0175,0.0243,0.023,0.028,0.028,0.024,0.028,0.0281,0.0318,0.0324,0.0342,0.0382,0.0385,0.0372,0.0374,0.0375,0.0376,0,0,0,0,0,0,0,0.0102,0.011,0.0172,0.0167,0.0173,0.0204,0.0212,0.024,0.0277,0.0244,0.0248,0.0259,0.0321,0.0339,0.0344,0.0386,0.0372,0.0374,0.0376,0.0377,0.0403,0.0402,0,0,0,0,0,0,0.0089,0.0105,0.0169,0.0174,0.0141,0.0205,0.0214,0.0221,0.0277,0.0286,0.0259,0.0261,0.0333,0.034,0.0347,0.0333,0.0375,0.0378,0.0379,0.0405,0.0403,0.0402,0,0,0,0,0,0,0.0086,0.0093,0.0165,0.0143,0.0154,0.0206,0.0214,0.0223,0.0245,0.0289,0.0297,0.0271,0.0334,0.0342,0.037,0.0338,0.0379,0.0382,0.0406,0.0404,0.0403,0.0328,0,0,0,0,0,0,0.0084,0.0092,0.0095,0.0142,0.0155,0.0194,0.0214,0.0224,0.0251,0.0255,0.0302,0.0309,0.0335,0.0366,0.0373,0.0342,0.0384,0.0407,0.0405,0.0403,0.0332,0.0324,0.0317,0,0,0,0,0,0.008,0.009,0.0094,0.0102,0.0156,0.0194,0.0204,0.0241,0.0251,0.0261,0.029,0.0308,0.0357,0.0368,0.0377,0.0346,0.0408,0.0406,0.0403,0.0335,0.0326,0.0318,0,0,0,0,0,0,0.0059,0.0097,0.0103,0.0123,0.0152,0.0202,0.0221,0.024,0.0272,0.0279,0.0311,0.0321,0.0324,0.0351,0.0362,0.0346,0.0379,0.0378,0.0324,0.0315,0.0308,0.0298,0.0386,0,0,0,0,0,0.0052,0.0071,0.0104,0.0123,0.0133,0.0173,0.0194,0.022,0.0254,0.0269,0.0294,0.0315,0.0321,0.0333,0.035,0.0357,0.0397,0.0337,0.0329,0.0323,0.032,0.0369,0.0366,0.0394,0.0394,0.0394,0,0,0.0049,0.0075,0.0085,0.012,0.0146,0.0151,0.0187,0.0222,0.0216,0.0272,0.0274,0.0296,0.0317,0.0314,0.0317,0.0335,0.0333,0.032,0.0314,0.0315,0.0366,0.0364,0.0362,0.0392,0.0393,0.0393,0,0,0.0056,0.0072,0.0086,0.01,0.0138,0.0153,0.0157,0.0197,0.0205,0.0221,0.0238,0.024,0.0274,0.0265,0.0267,0.0232,0.0292,0.0238,0.0197,0.0244,0.0243,0.0242,0.0279,0.0282,0.0236,0.0235,0.0235,0,0.005,0.006,0.0096,0.0104,0.0102,0.0143,0.0135,0.015,0.0191,0.0178,0.0213,0.0216,0.0239,0.0202,0.0194,0.0211,0.0264,0.0228,0.0236,0.0236,0.0236,0.0275,0.028,0.0232,0.0232,0.0232,0.0233,0,0.0055,0.0057,0.0066,0.0072,0.0078,0.0085,0.0094,0.0094,0.0105,0.0113,0.0095,0.013,0.013,0.0126,0.0159,0.0149,0.0193,0.0221,0.0259,0.0229,0.0272,0.0278,0.0226,0.0227,0.0229,0.0229,0,0,0.0045,0.0061,0.0059,0.0038,0.0054,0.0051,0.0031,0.0009,-0.0026,0.0012,-0.0032,-0.0015,0.0013,0.0018,0.0045,0.0087,0.0133,0.0166,0.0171,0.0205,0.0253,0.0204,0.0207,0.0187,0.0188,0.0189,0.0278,0,0.0026,0.0016,0.0027,-0.0011,-0.0028,-0.0026,-0.006,-0.0073,-0.0077,-0.0106,-0.0086,-0.0099,-0.0032,-0.0029,0.0021,0.0107,0.0149,0.0107,0.0275,0.0279,0.0242,0.0212,0.0191,0.0282,0.0284,0.0285,0.0286,0,0.0019,0.0003,-0.003,-0.0082,-0.0094,-0.0115,-0.0187,-0.0206,-0.0235,-0.0235,-0.0233,-0.0201,-0.0165,-0.0093,0.0047,0.0034,0.014,0.0213,0.0218,0.0204,0.0242,0.0322,0.0298,0.0297,0.0296,0.0295,0.0294,0,-0.0017,-0.0046,-0.0086,-0.0099,-0.0141,-0.0177,-0.0208,-0.0246,-0.0284,-0.0309,-0.0323,-0.0276,-0.0247,-0.0105,0.0057,0.0075,0.0224,0.0259,0.0302,0.03,0.0354,0.0355,0.0356,0.0356,0.0356,0.0356,0.0356,0,-0.0045,-0.008,-0.0108,-0.0134,-0.0213,-0.0221,-0.0301,-0.0331,-0.0371,-0.0412,-0.0379,-0.0387,-0.0232,-0.0132,0.003,0.018,0.021,0.0285,0.0315,0.0318,0.0314,0.0359,0.0358,0.0359,0.0358,0.0358,0.0357,0,-0.0063,-0.0075,-0.0132,-0.0196,-0.0221,-0.0275,-0.0349,-0.0403,-0.0427,-0.0476,-0.0477,-0.0449,-0.0323,-0.0179,0.0027,0.0125,0.0279,0.0326,0.0301,0.0331,0.0333,0.0327,0.0375,0.0374,0.0373,0.0372,0.0372,0,-0.007,-0.0094,-0.0176,-0.0219,-0.0247,-0.0321,-0.0371,-0.0423,-0.0462,-0.0501,-0.0517,-0.0457,-0.0407,-0.0177,-0.0015,0.0225,0.0265,0.0334,0.0342,0.0307,0.0333,0.0328,0.0324,0.037,0.037,0.037,0.0369,0,-0.01,-0.012,-0.0173,-0.0252,-0.0314,-0.0392,-0.0454,-0.0485,-0.0528,-0.0554,-0.0546,-0.0468,-0.0366,-0.0197,-0.0036,0.0153,0.0281,0.0326,0.0329,0.0337,0.0302,0.0328,0.0324,0.0366,0.0367,0.0367,0.0367,0,-0.0119,-0.0162,-0.0218,-0.0292,-0.0368,-0.0433,-0.0472,-0.0507,-0.0548,-0.0568,-0.0557,-0.0465,-0.0413,-0.0234,-0.0062,0.008,0.0126,0.0188,0.02,0.0205,0.0121,0.005,0.0052,0,0,0,0,0,-0.0134,-0.0181,-0.0254,-0.0338,-0.0409,-0.0446,-0.0515,-0.0539,-0.0564,-0.056,-0.0561,-0.046,-0.0291,-0.0231,-0.0093,-0.0063,0.0161,0.0101,0.0241,0.0349,0.0352,0.0278,0,0,0,0,0,0,-0.0149,-0.0211,-0.0254,-0.035,-0.0401,-0.0481,-0.0518,-0.0538,-0.0533,-0.054,-0.045,-0.0426,-0.0253,-0.0357,-0.0088,-0.0052,0.0054,0.0177,0.0179,0.0347,0.035,0.0353,0.0277,0,0,0,0,0]}]]